Regional Weather Roundup
Issued by NWS Green Bay, WI

Home | Current Version | Previous Version | Graphics & Text | Print | Product List | Glossary Off
Versions: 1 2 3 4 5 6 7 8 9 10 11 12 13 14 15 16 17 18 19 20 21 22 23 24 25 26 27 28 29 30 31 32 33 34 35 36 37 38 39 40 41 42 43 44 45 46 47 48 49 50

000
ASUS43 KGRB 210610
RWRGRB

NORTH-CENTRAL AND NORTHEAST WISCONSIN REGIONAL WEATHER ROUNDUP
NATIONAL WEATHER SERVICE GREEN BAY WI
100 AM CDT SUN SEP 21 2014

WIZ005-009-010>012-018-019-210700-
NORTH CENTRAL WISCONSIN

CITY           SKY/WX    TMP DP  RH WIND       PRES   REMARKS
IRONWOOD       CLOUDY    54  54 100 W5        29.67R
MANITOWISH WTR DRIZZLE   51  51 100 CALM      29.68F
ARBOR VITAE    DRIZZLE   53  51  93 CALM      29.69S
EAGLE RIVER    HVY RAIN  52  52  99 N6        29.68F
LAND O LAKES   HVY RAIN  53  51  92 W5        29.69F
RHINELANDER    CLOUDY    52  51  97 W6        29.69S
PHILLIPS       LGT RAIN  52  52  99 W3        29.68F
ANTIGO         CLOUDY    52  52  99 W7        29.69S
TOMAHAWK       CLOUDY    51  50  96 CALM      29.70S
MERRILL        MOCLDY    53  52  98 W5        29.69S
$$

WIZ013-073-210700-
NORTHEAST WISCONSIN

CITY           SKY/WX    TMP DP  RH WIND       PRES   REMARKS
IRON MOUNTAIN  RAIN      56  53  90 NE6       29.66F FOG
MARINETTE      CLOUDY    55  54  94 E8        29.66R
OCONTO         CLOUDY    56  56 100 E5        29.65S
$$

WIZ017-030-035>037-045-210700-
CENTRAL WISCONSIN

CITY           SKY/WX    TMP DP  RH WIND       PRES   REMARKS
MEDFORD        DRIZZLE   54  52  94 W13G21    29.70F
WAUSAU         CLOUDY    55  53  93 W9        29.69S
MOSINEE        CLOUDY    54  54 100 W8        29.71F
MARSHFIELD     MOCLDY    56  52  86 W15       29.72F
WISC RAPIDS    MOCLDY    56  53  90 W13       29.74F
STEVENS POINT  CLOUDY    53  52  96 W5        29.71S
WAUPACA        CLEAR     57  55  95 W7        29.70F
SHAWANO        CLOUDY    58  55  89 W3        29.69R
CLINTONVILLE   PTCLDY    55  54  94 W3        29.68S
$$

WIZ038-039-048-051-210700-
FOX VALLEY

CITY           SKY/WX    TMP DP  RH WIND       PRES   REMARKS
NWS GREEN BAY  CLOUDY    57  55  93 W7        29.67F
APPLETON       PTCLDY    54  54 100 W9        29.69S
OSHKOSH        PTCLDY    58  56  93 W5        29.69S
FOND DU LAC    PTCLDY    58  55  90 W7        29.70S
$$

WIZ022-050-052-210700-
EAST CENTRAL WISCONSIN

CITY           SKY/WX    TMP DP  RH WIND       PRES   REMARKS
STURGEON BAY   CLOUDY    57  54  88 N6        29.66R
MANITOWOC      CLOUDY    58  56  93 W7        29.65F
SHEBOYGAN      CLOUDY    58  55  90 MISG      29.66F
$$

LMZ563-521-522-541>543-210700-
LAKESHORE

STATION/POSITION TIME  TEMP    WIND        PRES    VSBY  WAVE
                       AIR SEA DIR/SP/G                  HT/PER
                 (UTC) (F)     (DEG/KT/KT) (MB)    (MI)  (FT/S)
SHEBOYGAN LKSHOR 0600   60 54  290/  8/ 10 1004.1F
KEWAUNEE LKSHORE 0600   58     300/  8/ 14 1003.6R
NORTHPORT PIER   0600   56      80/  6/  8 1004.4F
N MID LAKE BUOY  0600   57 58   60/ 12/ 14 1003.8F         2/ 6
S GREEN BAY BUOY 0600   58                 1004.8F
SISTER BAY LKSHO 0500             CALM       N/A
CHAMBERS ISLAND  0600   57     330/ 10/ 15 1004.7F
MENOMINEE LKSHOR 0600   57      30/ 13/ 16 1004.8R
$$



USA.gov is the U.S. government's official web portal to all federal, state and local government web resources and services.